Main page
METAR-TAF:

METAR-TAF

Airports :

Lake City Gateway Airport

Lake City, Florida, United States

latitude: 30-10-55N, longitude: 082-34-37W, elevation: 200 ft

Current weather observation

The report was made 19 minutes ago, at 08:55 UTC
Wind 3 mph from the Northeast
Temperature 61°F
Humidity 94%
Pressure 29.97 in. Hg
Visibility: 10 miles
Clear sky

METAR: KLCQ 240855Z AUTO 04003KT 10SM CLR 16/15 A2997 RMK AO2

Time: 05:14 (09:14 UTC)


TAF: missing

Weather observations and forecasts of more than 4000 airports (METAR and TAF reports).

The available stations are represented by yellow and red dots on the map.

Hover mouse over dot to see the name of the station.

Then click to see weather observations and forecasts.

To change the map : click on the green buttons with a black cross to zoom in, on the green button with a dash to zoom out, or on the green arrows for adjacent maps.


METAR-TAF: